Flag for Puerto Rico Weather past 2 weeks in San Juan, Puerto Rico

Now
85 °F

Scattered clouds.


Feels Like: 95 °F
Forecast: N/A
Wind: 15 mph from Northeast

Location: Luis Munoz Marin

Current Time: Aug 20, 2014 at 4:32:42 PM

Latest Report: Aug 20, 2014 at 3:56 PM


Visibility: 10 mi

Pressure: 29.98 "Hg

Humidity: 77%

Dew point: 77 °F

Location of San JuanLocation

Historic Weather in San Juan — Graph

°F

San Juan temperature yesterday

Maximum temperature yesterday: 88 °F (at 11:56 AM)
Minimum temperature yesterday: 80 °F (at 3:56 AM)
Average temperature yesterday: 84 °F

Past Weeks' High & Low Weather Summary

 TemperatureHumidityPressure
High89 °F (Aug 6, 11:56 AM)100% (Aug 10, 11:56 PM)30.09 "Hg (Aug 10, 11:56 PM)
Low76 °F (Aug 13, 4:56 AM)57% (Aug 9, 1:56 PM)29.95 "Hg (Aug 18, 3:56 PM)
Average82 °F82%30.03 "Hg
* Reported Aug 5 2:56 PM — Aug 20 2:56 PM, San Juan, Weather by CustomWeather, © 2014

Note: Actual official high and low records may vary slightly from our data, if they occured in-between our weather recording intervals... More about our weather records

Advertising

San Juan weather history for previous 24 hours

 ConditionsComfort  
Time TempWeatherWind HumidityBarometerVisibility
2:56 PM
Aug 20
85 °FScattered clouds.17 mph77%29.98 "Hg10 mi
1:56 PM87 °FScattered clouds.20 mph75%29.98 "Hg10 mi
12:56 PM88 °FScattered clouds.17 mph73%30.00 "Hg10 mi
11:56 AM87 °FScattered clouds.17 mph72%30.01 "Hg10 mi
10:56 AM87 °FScattered clouds.16 mph75%30.02 "Hg10 mi
9:56 AM86 °FScattered clouds.20 mph75%30.03 "Hg10 mi
8:56 AM84 °FScattered clouds.15 mph83%30.01 "Hg10 mi
7:56 AM82 °FBroken clouds.5 mph88%30.00 "Hg10 mi
6:56 AM79 °FPartly cloudy.3 mph90%29.99 "Hg10 mi
5:56 AM79 °FPartly cloudy.No wind90%29.99 "Hg10 mi
4:56 AM78 °FPassing clouds.No wind90%29.98 "Hg10 mi
3:56 AM77 °FLight rain. Passing clouds.No wind94%29.97 "Hg10 mi
2:56 AM79 °FLight rain. Passing clouds.3 mph94%29.96 "Hg10 mi
1:56 AM79 °FPassing clouds.3 mph90%29.98 "Hg10 mi
12:56 AM81 °FPassing clouds.No wind88%29.98 "Hg10 mi
11:56 PM
Aug 19
82 °FPassing clouds.7 mph88%30.00 "Hg10 mi
10:56 PM81 °FPassing clouds.9 mph91%30.01 "Hg10 mi
9:56 PM84 °FPartly cloudy.13 mph77%30.01 "Hg10 mi
8:56 PM84 °FPartly cloudy.10 mph83%30.00 "Hg10 mi
7:56 PM84 °FPassing clouds.13 mph80%29.99 "Hg10 mi
6:56 PM84 °FBroken clouds.12 mph80%29.99 "Hg10 mi
5:56 PM85 °FScattered clouds.14 mph77%29.98 "Hg10 mi
4:56 PM86 °FScattered clouds.14 mph75%29.96 "Hg10 mi
Weather by CustomWeather, © 2014

See weather overviewHow to use our weather pages